#timestamp,LO_Frequency,Hit,StdDev 
1562313615.4,286046992.6,P
1562313635.3,286046992.6,P
1562313655.1,286046990.2,P
1562313675.8,286046987.4,Y
1562313695.7,286046994.6,P
1562313715.5,286046991.9,P
1562313735.4,286046990.1,P
1562313755.2,286046990.1,Y
1562313775.0,286046998.6,P
1562313775.9,286046998.6,N
1562313795.8,286047000.4,N
1562313815.6,286047000.0,N
1562313835.5,286047003.8,N
1562313855.3,286047003.2,N
1562313875.1,286046999.7,N
1562313895.9,286047002.0,N
1562313915.7,286047004.4,N
1562313935.5,286047002.8,N
1562313985.4,286047000.7,E
1562313995.3,286046998.4,N
1562314015.2,286046997.1,P
1562314035.0,286046999.5,N
1562314035.9,286046999.5,N
1562314055.8,286046998.4,N
1562314075.6,286046998.5,N
1562314095.4,286046999.4,N
1562314115.3,286046997.8,N
1562314135.1,286046993.9,Y
1562314155.9,286046996.2,P
1562314175.7,286046995.9,P
1562314195.5,286046992.5,P
1562314215.4,286046990.7,Y
1562314235.2,286046995.4,P
1562314255.0,286046997.1,P
1562314255.9,286046997.1,P
1562314275.8,286046996.5,Y
1562314295.6,286046999.7,P
1562314315.5,286047004.3,N
1562314335.3,286047003.0,N
1562314355.1,286047005.4,N
1562314375.9,286047004.7,N
1562314395.7,286047003.8,N
1562314415.5,286047003.0,N
1562314435.4,286047005.2,N
1562314455.2,286047004.7,N
1562314475.1,286047001.3,N
1562314476.0,286047001.3,N
1562314495.8,286047001.0,N
1562314515.6,286046997.6,N
1562314535.5,286046994.4,N
1562314555.3,286046990.1,Y
1562314575.2,286046985.7,P
1562314595.9,286046988.2,N
1562314615.7,286046985.8,N
1562314635.6,286046987.5,N
1562314655.4,286046995.8,N
1562314675.2,286047000.9,N
1562314695.1,286047001.0,N
1562314696.0,286047001.0,N
1562314715.8,286046999.0,N
1562314735.7,286046999.3,N
1562314755.5,286046996.9,N
1562314775.3,286046997.9,N
1562314795.2,286046993.3,N
1562314815.9,286046991.0,N
1562314835.7,286046985.4,N
1562314855.6,286046983.0,N
1562314875.4,286046983.6,N
1562314895.2,286046983.4,N
1562314915.1,286046982.5,N
1562314916.0,286046982.5,N
1562314935.8,286046984.0,N
1562314955.7,286046989.6,N
1562314975.5,286046988.5,N
1562314995.3,286046987.8,N
1562315015.2,286046987.0,N
1562315035.0,286046992.5,N
1562315035.9,286046992.5,N
1562315055.8,286046994.6,N
1562315075.6,286046999.4,N
1562315095.4,286046999.9,N
1562315115.3,286046999.0,N
1562315135.1,286046998.0,N
1562315155.8,286046993.1,N
1562315175.7,286046993.6,N
1562315195.5,286046999.5,N
1562315215.3,286046995.4,N
1562315235.2,286046992.4,N
1562315255.0,286046990.2,N
1562315255.9,286046990.2,N
1562315275.8,286046992.8,N
1562315295.6,286046990.4,N
1562315315.4,286046988.9,N
1562315335.3,286046986.4,N
1562315355.1,286046984.2,N
1562315375.9,286046985.9,N
1562315395.7,286046987.2,N
1562315415.5,286046985.6,N
1562315435.4,286046986.8,N
1562315455.2,286046988.2,N
1562315475.0,286046987.7,N
1562315475.9,286046987.7,N
1562315495.8,286046985.4,Y
1562315515.6,286046993.8,P
1562315535.5,286046995.6,P
1562315555.3,286046997.9,N
1562315575.1,286046995.0,N
1562315595.9,286046993.5,N
1562315615.7,286046989.1,Y
1562315635.5,286046992.8,P
1562315655.4,286046988.5,P
1562315675.2,286046989.4,P
1562315695.1,286046984.0,Y
1562315696.0,286046984.0,P
1562315715.8,286046995.8,N
1562315735.6,286046999.3,N
1562315755.5,286046997.5,N
1562315775.3,286046999.2,N
1562315795.1,286046998.4,N
1562315815.9,286046995.3,N
1562315835.7,286046992.3,N
1562315855.6,286046988.8,N
1562315875.4,286046989.2,N
1562315895.2,286046985.5,Y
1562315915.1,286046992.5,P
1562315916.0,286046992.5,P
1562315935.8,286046994.7,P
1562315955.7,286046990.6,Y
1562315975.5,286046993.7,P
1562315995.3,286046994.9,P
1562316015.2,286047002.8,P
1562316035.0,286047005.9,N
1562316035.9,286047005.9,N
1562316055.8,286047005.9,N
1562316075.6,286047006.1,N
1562316095.5,286047004.5,N
1562316115.3,286047008.2,N
1562316135.1,286047012.1,N
1562316155.9,286047015.5,N
1562316175.7,286047011.3,N
1562316195.5,286047012.3,N
1562316215.4,286047006.7,N
1562316235.2,286047008.7,N
1562316255.1,286047009.1,N
1562316256.0,286047009.1,N
1562316275.8,286047006.3,N
1562316295.6,286047007.1,N
1562316315.5,286047010.7,N
1562316335.3,286047010.5,N
1562316355.1,286047010.7,N
1562316375.9,286047006.4,N
1562316395.7,286047009.2,N
1562316415.6,286047007.3,N
1562316435.4,286047006.2,N
1562316455.2,286047003.5,N
1562316475.1,286047003.4,N
1562316476.0,286047003.4,N
1562316495.8,286047004.1,N
1562316515.7,286047002.6,N
1562316535.5,286046996.5,N
1562316555.3,286046998.4,N
1562316575.2,286046996.3,N
1562316595.0,286046997.0,N
1562316595.9,286046997.0,N
1562316615.8,286046999.3,N
1562316635.6,286046995.6,N
1562316655.4,286046996.1,N
1562316675.3,286046992.4,N
1562316695.1,286046990.8,N
1562316715.9,286046990.9,N
1562316735.7,286046990.1,N
1562316755.6,286046990.8,N
1562316775.4,286046992.3,N
1562316795.2,286046988.6,N
1562316815.1,286046987.5,N
1562316816.0,286046987.5,N
1562316835.8,286046986.1,N
1562316855.7,286046986.5,N
1562316875.5,286046985.2,N
1562316895.3,286046983.7,N
1562316915.2,286046982.6,N
1562316935.0,286046983.2,N
1562316935.9,286046983.2,N
1562316985.8,286046984.8,E
1562316995.7,286046990.4,N
1562317015.6,286047002.2,P
1562317035.4,286047002.1,N
1562317055.2,286046999.5,N
1562317075.1,286046995.2,N
1562317076.0,286046995.2,N
1562317095.8,286046997.5,N
1562317115.6,286047000.9,N
1562317135.5,286047001.4,N
1562317155.3,286047002.8,N
1562317175.2,286046995.1,N
1562317195.9,286046995.2,N
